sat.trackr.live / text

‹ back to catalog

STARLINK-34863

NORAD 66190 · 2025-243P

PAYLOAD ACTIVE UNKNOWN

§ Identity

Operator
Country
US
Launch date
2025-10-26
Launch site
AFETR
Launch vehicle
Mass (kg)
RCS (m²)

Purposes: comms

External: N2YO · Heavens-Above · Gunter

§ Orbital elements

Epoch: 2026-05-24T23:46:21.842976Z

Period
94.10 min
Inclination
53.1577°
Eccentricity
0.0000601
Mean motion
15.30208362 rev/d
Perigee alt
474.8 km
Apogee alt
475.6 km
Semi-major
6,853.3 km
B*
6.7036e-4
RAAN
250.9963°
Arg perigee
47.4804°
Mean anomaly
312.6247°
Rev number
3,233

§ Raw data

STARLINK-348631 66190U 25243P   26144.99053059  .00019552  00000+0  67036-3 0  99912 66190  53.1577 250.9963 0000601  47.4804 312.6247 15.30208362 32336

JSON: /api/v1/satellites/66190 · /tle

For live sub-satellite position, see the globe view (requires WebGL).

§ Visibility from observer

Set your observer location to see the next 7 days of passes ≥ 10°. The values pass through the URL so the page stays shareable.

No JS? Fill the form by hand. The geolocation button needs JavaScript.